Current weather by "City, St" or "zip code"  
 

Current Conditions: Fayetteville Municipal Airport, TN

Overcast


45.0 F

Last Updated on Apr 23 2021, 4:55 am CDT
Humidity: 81%
Wind Speed: N 0.0 mph
Barometer 30.13 in
Dewpoint: 39.2 F
Visibility: 10.00 mi
Precip: --
Heat Index: NA
Wind Chill: NA
Current conditions at:

Fayetteville Municipal Airport, TN (KFYM)

Lat: 35.0597 Lon: 86.564

Local Radar Image active severe weather and emergency alerts image image weather storm and storm spotter reports image weather observation monitoring service image
Local
Radar
Active
Alerts
Storm Reports Obs
Monitoring

Sign-up For Email & Text Message Weather Alert Notification Services



Advertise Here

Observation History for Fayetteville Municipal Airport, TN


Time Wind
(mph)
Vis
(mi)
Weather Precip (in) Temperature (F) Relative
Humidity
Wind
Chill
(F)
Heat
Index
(F)
Pressure
Air Dwpt altimeter
(in)
sea level
(mb)
Rmks
4:55 am CDT N 0.0 10.00 Overcast -- 45.0 39.2 81% NA NA 30.13 M
3:55 am CDT N 0.0 10.00 Mostly Cloudy -- 43.0 39.2 87% NA NA 30.14 M
2:55 am CDT N 0.0 10.00 Fair -- 45.0 37.4 76% NA NA 30.13 M
1:55 am CDT N 0.0 10.00 A Few Clouds -- 43.0 35.6 76% NA NA 30.14 M
12:55 am CDT N 0.0 10.00 Fair -- 43.0 37.4 81% NA NA 30.16 M
11:55 pm CDT NE 3.5 10.00 Fair -- 45.0 35.6 71% NA NA 30.17 M
10:55 pm CDT N 0.0 10.00 Fair -- 46.0 35.6 66% NA NA 30.16 M
9:55 pm CDT N 0.0 10.00 Fair -- 46.0 35.6 66% NA NA 30.16 M
8:55 pm CDT N 0.0 10.00 Fair -- 52.0 33.8 50% NA NA 30.16 M
7:55 pm CDT SW 4.6 10.00 Fair -- 54.0 32.0 44% 53 NA 30.14 M
6:55 pm CDT N 0.0 10.00 Fair -- 59.0 28.4 31% NA NA 30.13 M
6:55 pm CDT N 0.0 10.00 Fair -- 59.0 28.4 31% NA NA 30.13 M
5:55 pm CDT W 5.8 10.00 Fair -- 61.0 28.4 29% 61 NA 30.14 M
4:55 pm CDT NW 6.9 10.00 Fair -- 61.0 26.6 27% 60 NA 30.14 M
3:55 pm CDT N 0.0 10.00 Fair -- 61.0 28.4 29% NA NA 30.15 M
2:55 pm CDT SW 9.2 G 17.3 10.00 Fair -- 61.0 30.2 31% 60 NA 30.19 M
1:55 pm CDT 5.8 G 12.7 10.00 Fair -- 59.0 30.2 34% 58 NA 30.21 M
12:55 pm CDT W 12.7 G 18.4 10.00 A Few Clouds -- 57.0 30.2 36% 54 NA 30.23 M
11:55 am CDT NW 6.9 G 15.0 10.00 A Few Clouds -- 55.0 26.6 33% 53 NA 30.25 M
10:55 am CDT W 8.1 G 15.0 10.00 Fair -- 54.0 28.4 38% 52 NA 30.26 M
9:55 am CDT W 8.1 10.00 Fair -- 50.0 32.0 50% 47 NA 30.26 M
8:55 am CDT 6.9 10.00 Fair -- 45.0 32.0 61% 41 NA 30.26 M
7:55 am CDT S 5.8 10.00 Fair -- 41.0 32.0 70% 37 NA 30.26 M
6:55 am CDT N 0.0 10.00 Fair -- 34.0 30.2 87% NA NA 30.24 M

Regional Weather Observation


Ellington Airport, TN (KLUG)

Overcast
43.0 F

Shelbyville Bomar Field amp; Shelbyville Municipal Airport, TN (KSYI)

Overcast
45.0 F

Tullahoma Regional Airport/William Northern Field, TN (KTHA)

Overcast
43.0 F

Pulaski Abernathy Field Airport, TN (KGZS)

Overcast
43.0 F

Winchester Municipal Airport, TN (KBGF)

Overcast
48.0 F

Lawrenceburg-Lawrence County Airport, TN (K2M2)

Overcast
45.0 F

Advertise Here


Advertise Here